Regional Weather Roundup
Issued by NWS Cleveland, OH

Home | Current Version | Previous Version | Graphics & Text | Print | Product List | Glossary On
Versions: 1 2 3 4 5 6 7 8 9 10 11 12 13 14 15 16 17 18 19 20 21 22 23 24 25 26 27 28 29 30 31 32 33 34 35 36 37 38 39 40 41 42 43 44 45 46 47 48 49 50
000
ASUS41 KCLE 241700
RWRCLE
OHIO REGIONAL WEATHER ROUNDUP
NATIONAL WEATHER SERVICE WILMINGTON, OH
100 PM EDT TUE MAY 24 2016

NOTE: "FAIR" INDICATES FEW OR NO CLOUDS BELOW 12,000 FEET WITH NO
SIGNIFICANT WEATHER AND/OR OBSTRUCTIONS TO VISIBILITY.

OHZ001>008-015>018-024>027-034-035-043-044-241800-
   NORTHWEST OHIO

CITY           SKY/WX    TMP DP  RH WIND       PRES   REMARKS
DEFIANCE       FAIR      81  45  28 SW9       30.06F HAZE
FINDLAY        FAIR      80  43  26 W12       30.06F
TOLEDO EXPRESS FAIR      81  41  24 SW9G17    30.04F
TOLEDO EXEC    FAIR      81  45  28 SW10      30.06F
LIMA           FAIR      77  43  29 W6        30.08F HAZE
$$

OHZ009>014-019>023-028>033-038-089-241800-
   NORTHEAST OHIO

CITY           SKY/WX    TMP DP  RH WIND       PRES   REMARKS
CLE-HOPKINS    FAIR      79  46  31 SW5       30.09S
CLE-LAKEFRONT  FAIR      70  55  59 NW9       30.06F
CUY CO. ARPT   SUNNY     75  45  33 NW12      30.09S
LORAIN-ELYRIA  FAIR      78  43  28 NW12      30.07F
ASHTABULA      FAIR      77  38  24 W9G24     30.07F
AKRON-CANTON   FAIR      77  44  30 SW13G20   30.09F
WOOSTER        NOT AVBL
MANSFIELD      FAIR      77  47  34 W7G16     30.11R
YOUNGSTOWN     FAIR      77  46  33 W8        30.08S
$$

OHZ042-051>053-060>062-070>072-077>081-241800-
  SOUTHWEST OHIO

CITY           SKY/WX    TMP DP  RH WIND       PRES   REMARKS
CINC-COVINGTON PTSUNNY   76  49  38 SW7       30.12F
CINC-LUNKEN    FAIR      77  54  44 VRB6      30.11F
HAMILTON       FAIR      78  52  40 W6        30.12S
DAYTON         NOT AVBL
WRIGHT-PAT AFB NOT AVBL
DAYTON GENERAL FAIR      76  49  38 SW10      30.11F
WILMINGTON     FAIR      75  51  43 VRB3      30.12F
$$

OHZ036-037-039>041-045>050-054>059-063>069-073>076-082>088-241800-
  CENTRAL AND SOUTHEAST OHIO

CITY           SKY/WX    TMP DP  RH WIND       PRES   REMARKS
COLUMBUS       FAIR      76  49  38 SW6       30.10F
OSU AIRPORT    FAIR      77  50  38 SW9G21    30.10F
BOLTON FIELD   SUNNY     75  54  46 W9        30.11F
RICKENBACK AFB NOT AVBL
NEWARK         FAIR      78  51  38 SW12      30.10F
MARION         FAIR      76  44  32 SW6       30.10S
LANCASTER      FAIR      76  54  46 SW7       30.12F
ZANESVILLE     FAIR      78  50  37 SW10      30.10F
NEW PHILLY     FAIR      79  47  32 VRB7      30.10S
$$



USA.gov is the U.S. government's official web portal to all federal, state and local government web resources and services.